STARLINK-5428, 54800

Orbit data source: Space-Track

STARLINK-5428, 54800 is a payload satellite owned by SpaceX/Seattle (US) in LEO that was launched on Sat, 17 Dec 2022 UTC via an FALCON 9 launch vehicle from the Air Force Eastern Test Range (AFETR). Payload-class satellites include a variety of spacecraft equipped with specific instruments for various scientific and technological missions. These include communications satellites like Starlink; space stations such as the ISS; scientific satellites like the Hubble; Earth observation satellites from companies like Planet Labs, Umbra, and HawkEye 360; GPS; miniature CubeSats for education and research; and military/defense satellites.

Loading next visibility...
Identifier
54800, 2022-175AU
Orbit
LEO
Country
Flag of USUS
Related business
Manufacturer
SpaceX/Seattle
Mission
Operational Commercial Communications
Bus & Motor
STARLINK, Unknown motor
Mass
305 kg wet, ~290 kg dry
Launch date (UTC)
2022-12-17 (4 years ago)
Launch vehicle
FALCON 9
Launch site
Air Force Eastern Test Range (AFETR)
Object type
Payload
Rocket body
Debris
Shape & HBR
Box + 1 Pan, 10.1 m
Radar Cross Section
13.562 m², Large (>1 m²)

Expand to show TLE details & history
Last TLE update: 3 days ago

TLE from 3 days ago
0 STARLINK-5428
1 54800U 22175AU  26170.64202888  .00000014  00000-0  18980-4 0  9993
2 54800  53.1599 296.0963 0001273  88.7116 271.4021 15.08832184195451
Epoch: 2026-06-19T15:24Z
TLE epoch observation values (Epoch: 2026-06-19T15:24:31.295Z)
Latitude
-0.00003°
Longitude
157.09781°
Altitude
540.637 km
Speed
7.593 km/s
True Right ascension
19h 44m 23s
True Declination
0° 00' 00"
Sunlit
Object was in full shadow at epoch
Visualization orbit readout
Latitude
Unknown
Longitude
Unknown
Altitude
Unknown
Speed
Unknown
Apparent Right ascension
Unknown
Apparent Declination
Unknown
Sunlit
N/A
Visualization observer readout
Local Sidereal Time
21:24:33
Azimuth
Unknown
Elevation
Unknown
Doppler factor
Unknown
Orbital elements
Apogee altitude
540.902 km
Perigee altitude
539.141 km
Semi-major axis
6,918.158 km
Eccentricity
0.00013
Inclination
53.1599°
RAAN
296.0963°
Arg. of periapsis
88.7116°
True anomaly
271.38752°
Mean anomaly
271.4021°
Eccentric anomaly
271.39481°
Mean motion
3.77188 °/min
Orbital period
95.44 mins
BSTAR
0.00001898
Loading maneuver chart data...
Computing Atmospheric mass density...
Loading historical data...
Loading historical data...
Loading historical data...
Loading historical data...
Loading historical data...
Loading historical data...
Loading historical data...

Documentation

Showing up to 5 results
|